Time,TemperatureF,DewpointF,PressureIn,WindDirection,WindDirectionDegrees,WindSpeedMPH,WindSpeedGustMPH,Humidity,HourlyPrecipIn,Conditions,Clouds,dailyrainin,SoftwareType,DateUTC
2013-03-25 03:00:00,16.0,-99.9,-100.00,North,5,3.0,-999.0,-999,-99.99,,,-99.99,,2013-03-25 09:00:00,
2013-03-25 03:53:00,16.0,-99.9,-100.00,North,5,3.0,-999.0,-999,-99.99,,,-99.99,,2013-03-25 09:53:00,
2013-03-25 04:00:00,13.0,-99.9,-100.00,SSE,160,1.0,-999.0,-999,-99.99,,,-99.99,,2013-03-25 10:00:00,
2013-03-25 04:54:00,13.0,-99.9,-100.00,SSE,160,1.0,-999.0,-999,-99.99,,,-99.99,,2013-03-25 10:54:00,
2013-03-25 05:00:00,14.0,-99.9,-100.00,East,85,2.0,-999.0,-999,-99.99,,,-99.99,,2013-03-25 11:00:00,
2013-03-25 05:53:00,14.0,-99.9,-100.00,East,85,2.0,-999.0,-999,-99.99,,,-99.99,,2013-03-25 11:53:00,
2013-03-25 06:00:00,14.0,-99.9,-100.00,NE,39,3.0,-999.0,-999,-99.99,,,-99.99,,2013-03-25 12:00:00,
2013-03-25 06:54:00,14.0,-99.9,-100.00,NE,39,3.0,-999.0,-999,-99.99,,,-99.99,,2013-03-25 12:54:00,
2013-03-25 07:00:00,15.0,-99.9,-100.00,NNW,334,2.0,-999.0,-999,-99.99,,,-99.99,,2013-03-25 13:00:00,
2013-03-25 07:53:00,15.0,-99.9,-100.00,NNW,334,2.0,-999.0,-999,-99.99,,,-99.99,,2013-03-25 13:53:00,
2013-03-25 08:00:00,16.0,-99.9,-100.00,WNW,302,1.0,-999.0,-999,-99.99,,,-99.99,,2013-03-25 14:00:00,
2013-03-25 08:53:00,16.0,-99.9,-100.00,WNW,302,1.0,-999.0,-999,-99.99,,,-99.99,,2013-03-25 14:53:00,
2013-03-25 09:00:00,19.0,-99.9,-100.00,SW,231,3.0,-999.0,-999,-99.99,,,-99.99,,2013-03-25 15:00:00,
2013-03-25 09:54:00,19.0,-99.9,-100.00,SW,231,3.0,-999.0,-999,-99.99,,,-99.99,,2013-03-25 15:54:00,
2013-03-25 10:00:00,23.0,-99.9,-100.00,SSW,208,4.0,-999.0,-999,-99.99,,,-99.99,,2013-03-25 16:00:00,
2013-03-25 10:53:00,23.0,-99.9,-100.00,SSW,208,4.0,-999.0,-999,-99.99,,,-99.99,,2013-03-25 16:53:00,
2013-03-25 11:00:00,29.0,-99.9,-100.00,South,171,3.0,-999.0,-999,-99.99,,,-99.99,,2013-03-25 17:00:00,
2013-03-25 11:53:00,29.0,-99.9,-100.00,South,171,3.0,-999.0,-999,-99.99,,,-99.99,,2013-03-25 17:53:00,
2013-03-25 12:00:00,29.0,-99.9,-100.00,East,90,3.0,-999.0,-999,-99.99,,,-99.99,,2013-03-25 18:00:00,
2013-03-25 13:00:00,30.0,-99.9,-100.00,East,83,4.0,-999.0,-999,-99.99,,,-99.99,,2013-03-25 19:00:00,
2013-03-25 13:53:00,30.0,-99.9,-100.00,East,83,4.0,-999.0,-999,-99.99,,,-99.99,,2013-03-25 19:53:00,
2013-03-25 14:00:00,31.0,-99.9,-100.00,ENE,72,4.0,-999.0,-999,-99.99,,,-99.99,,2013-03-25 20:00:00,
2013-03-25 14:52:00,31.0,-99.9,-100.00,ENE,72,4.0,-999.0,-999,-99.99,,,-99.99,,2013-03-25 20:52:00,
2013-03-25 15:00:00,33.0,-99.9,-100.00,ESE,117,3.0,-999.0,-999,-99.99,,,-99.99,,2013-03-25 21:00:00,
2013-03-25 15:52:00,33.0,-99.9,-100.00,ESE,117,3.0,-999.0,-999,-99.99,,,-99.99,,2013-03-25 21:52:00,
2013-03-25 16:00:00,34.0,-99.9,-100.00,ESE,122,5.0,-999.0,-999,-99.99,,,-99.99,,2013-03-25 22:00:00,
2013-03-25 16:53:00,34.0,-99.9,-100.00,ESE,122,5.0,-999.0,-999,-99.99,,,-99.99,,2013-03-25 22:53:00,
2013-03-25 17:00:00,35.0,-99.9,-100.00,ESE,102,4.0,-999.0,-999,-99.99,,,-99.99,,2013-03-25 23:00:00,
2013-03-25 17:53:00,35.0,-99.9,-100.00,ESE,102,4.0,-999.0,-999,-99.99,,,-99.99,,2013-03-25 23:53:00,
2013-03-25 18:00:00,34.0,-99.9,-100.00,ESE,105,5.0,-999.0,-999,-99.99,,,-99.99,,2013-03-26 00:00:00,
2013-03-25 18:53:00,34.0,-99.9,-100.00,ESE,105,5.0,-999.0,-999,-99.99,,,-99.99,,2013-03-26 00:53:00,
2013-03-25 19:00:00,32.0,-99.9,-100.00,ESE,114,5.0,-999.0,-999,-99.99,,,-99.99,,2013-03-26 01:00:00,
2013-03-25 19:53:00,32.0,-99.9,-100.00,ESE,114,5.0,-999.0,-999,-99.99,,,-99.99,,2013-03-26 01:53:00,
2013-03-25 20:00:00,28.0,-99.9,-100.00,SE,133,2.0,-999.0,-999,-99.99,,,-99.99,,2013-03-26 02:00:00,
2013-03-25 20:53:00,28.0,-99.9,-100.00,SE,133,2.0,-999.0,-999,-99.99,,,-99.99,,2013-03-26 02:53:00,
2013-03-25 21:00:00,28.0,-99.9,-100.00,SSW,207,5.0,-999.0,-999,-99.99,,,-99.99,,2013-03-26 03:00:00,
2013-03-25 21:53:00,28.0,-99.9,-100.00,SSW,207,5.0,-999.0,-999,-99.99,,,-99.99,,2013-03-26 03:53:00,
2013-03-25 22:00:00,28.0,-99.9,-100.00,SSW,201,6.0,-999.0,-999,-99.99,,,-99.99,,2013-03-26 04:00:00,
2013-03-25 22:53:00,28.0,-99.9,-100.00,SSW,201,6.0,-999.0,-999,-99.99,,,-99.99,,2013-03-26 04:53:00,
2013-03-25 23:00:00,27.0,-99.9,-100.00,SSW,202,4.0,-999.0,-999,-99.99,,,-99.99,,2013-03-26 05:00:00,
2013-03-25 23:52:00,27.0,-99.9,-100.00,SSW,202,4.0,-999.0,-999,-99.99,,,-99.99,,2013-03-26 05:52:00,